Regional Weather Roundup
Issued by NWS

Home | Current Version | Previous Version | Graphics & Text | Print | Product List | Glossary On
Versions: 1 2 3 4 5 6 7 8 9 10 11 12 13 14 15 16 17 18 19 20 21 22 23 24 25 26 27 28 29 30 31 32 33 34 35 36 37 38 39 40 41 42 43 44 45 46 47 48 49 50
000
ASUS43 KLSX 031059
RWRMO

WEATHER SUMMARY FOR MISSOURI
NATIONAL WEATHER SERVICE SPRINGFIELD MO
500 AM CST TUE MAR 03 2015

NOTE: "FAIR" INDICATES FEW OR NO CLOUDS BELOW 12,000 FEET WITH NO
       SIGNIFICANT WEATHER AND/OR OBSTRUCTIONS TO VISIBILITY.
       CURRENT SKY AND/OR WEATHER CONDITIONS ARE NOT AVAILABLE FOR
       CHILLICOTHE AND FARMINGTON.

MOZ001>031-035>038-043-044-053-054-031200-
...NORTHERN AND WESTERN MISSOURI...

CITY           SKY/WX    TMP DP  RH WIND       PRES   REMARKS
KANSAS CTY INT DRIZZLE   35  34  96 S17       29.74F WCI  25
KANSAS C DTWN  CLOUDY    37  34  89 S16G25    29.77F WCI  28
LEE`S SUMMIT   CLOUDY    34  32  92 S18G25    29.76F FOG     WCI  23
ST JOSEPH      CLOUDY    34  33  96 S12       29.73F FOG     WCI  25
CHILLICOTHE      N/A     32  30  92 S13       29.79F WCI  22
KIRKSVILLE     CLOUDY    29  29 100 SE14      29.82F FOG     WCI  18

$$
MOZ066>068-077>081-088>096-101>105-031200-
...SOUTHWEST MISSOURI...

CITY           SKY/WX    TMP DP  RH WIND       PRES   REMARKS
SPRINGFIELD    CLOUDY    34  31  88 S13G33    29.89F WCI  25
JOPLIN         CLOUDY    37  36  96 S14       29.89F FOG     WCI  28

$$
MOZ032>034-039>042-045>050-055>058-069>072-031200-
...CENTRAL MISSOURI...

CITY           SKY/WX    TMP DP  RH WIND       PRES   REMARKS
COLUMBIA       CLOUDY    34  28  79 S9        29.90F WCI  27
JEFFERSON CITY CLOUDY    36  29  75 S5        29.93F
ROLLA          CLOUDY    34  30  85 S15       29.90F WCI  24
SEDALIA        CLOUDY    36  30  79 S16       29.84F WCI  26
WHITEMAN AFB   CLOUDY    35  31  85 S20G25    29.81F WCI  24
OSAGE BEACH    CLOUDY    36  28  75 S8        29.92S WCI  29

$$
MOZ051-052-059>065-031200-
...EAST CENTRAL MISSOURI...

CITY           SKY/WX    TMP DP  RH WIND       PRES   REMARKS
ST LOUIS INTL  CLOUDY    34  24  67 SE8       29.97F WCI  27
SPIRIT OF STL  CLOUDY    33  25  72 CALM      29.96F
ST CHARLES     CLOUDY    32  25  75 SE8       29.97F WCI  25

$$
MOZ072>076-082>087-097>100-106>115-031200-
...SOUTH CENTRAL AND SOUTHEAST MISSOURI...

CITY           SKY/WX    TMP DP  RH WIND       PRES   REMARKS
CAPE GIRARDEAU CLOUDY    36  29  75 S7        30.06S
FARMINGTON     CLOUDY    34  28  80 S17       29.99F WCI  23
POPLAR BLUFF   CLOUDY    34  27  75 CALM      30.05F
WEST PLAINS    CLOUDY    32  29  88 S9        29.97F FOG     WCI  24

$$



USA.gov is the U.S. government's official web portal to all federal, state and local government web resources and services.